Weather reports worldwide

Advertisment
Llanes, Spain (8016): temperature & dewpoint: 18.06.2018 16:00:00 - 24.06.2018 16:00:00 (CEST)Llanes, Spain (8016): wind speed & gusts: 18.06.2018 16:00:00 - 24.06.2018 16:00:00 (CEST)Llanes, Spain (8016): wind direction: 18.06.2018 16:00:00 - 24.06.2018 16:00:00 (CEST)Llanes, Spain (8016): reduced air pressure: 18.06.2018 16:00:00 - 24.06.2018 16:00:00 (CEST)Llanes, Spain (8016): visibility: 18.06.2018 16:00:00 - 24.06.2018 16:00:00 (CEST)Llanes, Spain (8016): sunshine duration: 18.06.2018 16:00:00 - 24.06.2018 16:00:00 (CEST)Llanes, Spain (8016): precipitation: 18.06.2018 16:00:00 - 24.06.2018 16:00:00 (CEST)
Date & Time tt [°C] td [°C] ff [km/h] ff [kn] fx [km/h] fx [kn] dd ppp [hPa] vv [km] sd [min] rr [mm]
24.06.2018 16:00:00 21,2 16,6 18 10 31 17 ESE 1016,8 17 60 0,0
24.06.2018 15:00:00 21,3 16,5 18 10 31 17 E 1017,0 14 60 0,0
24.06.2018 14:00:00 21,4 15,7 18 10 27 15 E 1017,1 15 60 -
24.06.2018 13:00:00 21,4 15,4 14 8 19 10 E 1017,3 20 60 0,0
24.06.2018 12:00:00 20,6 15,2 11 6 20 11 E 1017,1 20 60 0,0
24.06.2018 11:00:00 20,0 15,3 8 4 15 8 E 1017,1 20 60 0,0
24.06.2018 10:00:00 19,4 15,3 3 2 6 4 ENE 1017,0 20 60 0,0
24.06.2018 09:00:00 18,2 15,1 1 1 4 2 NE 1017,3 18 60 0,0
24.06.2018 08:00:00 15,7 13,2 0 0 11 6 N 1017,1 14 56 -
24.06.2018 07:00:00 14,8 12,4 8 4 14 8 WSW 1016,7 20 0 0,0
24.06.2018 06:00:00 14,9 12,5 8 5 13 7 WSW 1016,5 20 0 0,0
24.06.2018 05:00:00 15,3 13,0 4 2 12 7 SW 1016,4 20 0 0,0
24.06.2018 04:00:00 15,5 13,0 1 1 12 7 WNW 1017,0 19 0 0,0
24.06.2018 03:00:00 15,9 13,2 2 1 13 7 WSW 1017,4 20 0 0,0
24.06.2018 02:00:00 16,4 13,4 1 1 8 4 W 1018,1 18 0 -
24.06.2018 01:00:00 16,9 13,7 1 1 24 13 WSW 1018,7 20 0 0,0
24.06.2018 00:00:00 17,6 14,3 9 5 16 9 SE 1019,1 7 0 0,0
23.06.2018 23:00:00 18,1 14,6 8 4 22 12 E 1018,8 10 0 0,0
23.06.2018 22:00:00 18,4 14,5 16 9 31 17 SE 1019,0 8 34 0,0
23.06.2018 21:00:00 19,0 14,7 21 11 29 16 ESE 1019,1 8 60 0,0
23.06.2018 20:00:00 19,5 15,0 16 9 34 19 ESE 1019,2 16 58 -
23.06.2018 19:00:00 19,9 15,2 17 9 37 20 ESE 1019,3 15 60 0,0
23.06.2018 18:00:00 20,6 15,6 18 10 35 19 E 1019,5 15 60 0,0
23.06.2018 17:00:00 20,9 15,4 21 11 35 19 ESE 1019,6 20 60 0,0
23.06.2018 16:00:00 21,3 15,8 19 11 32 17 E 1019,8 20 60 0,0
23.06.2018 15:00:00 21,4 16,1 24 13 33 18 E 1020,3 20 60 0,0
23.06.2018 14:00:00 21,0 16,0 19 10 35 19 E 1020,8 16 60 -
23.06.2018 13:00:00 20,8 16,2 19 10 30 16 ESE 1021,2 14 60 0,0
23.06.2018 12:00:00 20,4 16,0 20 11 29 16 E 1021,3 20 60 0,0
23.06.2018 11:00:00 19,8 15,3 16 9 31 17 E 1021,1 20 60 0,0
23.06.2018 10:00:00 19,1 14,5 14 8 31 17 E 1021,1 20 60 0,0
23.06.2018 09:00:00 17,9 13,9 13 7 19 11 E 1020,8 20 60 0,0
23.06.2018 08:00:00 16,3 13,8 1 1 7 4 NE 1020,6 13 59 -
23.06.2018 07:00:00 15,3 13,0 3 2 7 4 SW 1020,4 20 0 0,0
23.06.2018 06:00:00 16,0 13,7 4 2 13 7 SSE 1020,5 8 0 0,0
23.06.2018 05:00:00 16,1 13,8 3 1 10 5 SSW 1020,6 16 0 0,0
23.06.2018 04:00:00 16,6 14,0 2 1 5 3 SSE 1020,9 2,6 0 0,0
23.06.2018 03:00:00 17,1 14,1 2 1 9 5 SSE 1021,4 6 0 0,0
23.06.2018 02:00:00 17,6 14,3 4 2 20 11 SSE 1021,9 8 0 -
23.06.2018 01:00:00 18,4 14,7 13 7 20 11 ESE 1022,3 6 0 0,0
23.06.2018 00:00:00 18,6 14,9 13 7 21 11 ESE 1022,5 6 0 0,0
22.06.2018 23:00:00 18,7 15,2 14 8 22 12 ESE 1022,7 5 0 0,0
22.06.2018 22:00:00 18,8 15,3 11 6 24 13 ESE 1022,3 6 0 0,0
22.06.2018 21:00:00 18,9 15,3 15 8 29 16 ESE 1022,2 14 0 0,2
22.06.2018 20:00:00 18,9 15,3 21 11 30 16 E 1022,5 18 0 -
22.06.2018 19:00:00 19,1 15,8 21 11 33 18 E 1022,4 20 0 0,0
22.06.2018 18:00:00 19,2 15,9 21 12 28 15 E 1022,6 20 0 0,0
22.06.2018 17:00:00 19,5 16,1 20 11 32 17 E 1022,6 17 0 0,0
22.06.2018 16:00:00 20,5 16,7 21 11 32 17 E 1022,5 20 2 0,0
22.06.2018 15:00:00 21,7 17,9 23 12 33 18 E 1022,4 17 21 0,0
22.06.2018 14:00:00 20,9 17,3 19 11 28 15 E 1022,4 17 11 -
22.06.2018 13:00:00 21,2 17,4 18 10 23 12 ENE 1022,5 20 58 0,0
22.06.2018 12:00:00 21,5 18,5 14 7 19 10 ENE 1022,4 20 60 0,0
22.06.2018 11:00:00 20,8 18,4 10 6 18 10 E 1022,3 14 18 0,0
22.06.2018 10:00:00 19,4 17,4 13 7 19 10 ESE 1022,4 8 0 0,0
22.06.2018 09:00:00 19,1 17,2 8 5 13 7 ESE 1022,5 4,8 0 0,0
22.06.2018 08:00:00 19,1 17,2 2 1 4 2 E 1022,3 3,3 0 -
22.06.2018 07:00:00 18,9 17,1 2 1 6 3 WSW 1022,3 4,8 0 0,0
22.06.2018 06:00:00 18,9 17,1 3 1 5 3 SW 1022,1 5 0 0,0
22.06.2018 05:00:00 18,8 17,0 1 1 4 2 W 1022,3 4,9 0 0,0
22.06.2018 04:00:00 18,8 17,0 1 1 8 4 SSW 1022,6 6 0 0,0
22.06.2018 03:00:00 18,8 17,0 2 1 8 4 S 1022,8 9 0 0,2
22.06.2018 02:00:00 18,9 17,1 3 2 6 3 SSE 1023,1 2,2 0 -
22.06.2018 01:00:00 18,9 17,1 3 2 9 5 SE 1023,5 2,4 0 0,0
22.06.2018 00:00:00 19,0 17,1 5 3 10 5 ESE 1023,7 1,2 0 0,4
21.06.2018 23:00:00 19,2 17,4 7 4 10 6 E 1023,5 1,2 0 0,2
21.06.2018 22:00:00 19,2 17,4 6 4 14 7 NE 1022,8 1,6 0 0,0
21.06.2018 21:00:00 19,3 17,3 12 6 19 10 NE 1022,7 1,6 0 0,0
21.06.2018 20:00:00 19,8 17,4 6 4 16 9 NE 1022,6 7 0 -
21.06.2018 19:00:00 20,5 17,5 10 6 19 10 NW 1022,4 11 0 0,0
21.06.2018 18:00:00 20,6 17,6 14 8 23 12 NW 1022,0 10 0 0,0
21.06.2018 17:00:00 21,0 17,6 11 6 19 10 NW 1021,9 12 0 0,0
21.06.2018 16:00:00 20,6 17,2 13 7 22 12 NNW 1022,0 15 0 0,0
21.06.2018 15:00:00 20,9 17,3 11 6 21 11 NW 1022,0 20 0 0,0
21.06.2018 14:00:00 20,4 17,2 11 6 20 11 WNW 1022,0 20 0 -
21.06.2018 13:00:00 20,1 17,3 11 6 23 13 NW 1022,1 17 0 0,0
21.06.2018 12:00:00 20,3 17,3 16 9 27 15 NW 1021,7 15 5 0,0
21.06.2018 11:00:00 20,4 17,2 18 10 27 14 NW 1021,3 20 37 0,0
21.06.2018 10:00:00 19,6 17,2 11 6 19 11 WNW 1021,1 20 0 0,0
21.06.2018 09:00:00 19,3 17,1 9 5 17 9 WNW 1021,0 4,8 0 0,0
21.06.2018 08:00:00 19,2 16,8 4 2 10 6 WNW 1020,6 10 0 -
21.06.2018 07:00:00 19,3 16,7 2 1 10 6 NE 1020,1 14 0 0,0
21.06.2018 06:00:00 19,3 16,7 5 3 18 10 W 1020,5 12 0 0,0
21.06.2018 05:00:00 19,5 16,7 6 3 14 8 WNW 1020,6 20 0 0,0
21.06.2018 04:00:00 19,5 16,6 4 2 11 6 WSW 1020,5 19 0 0,0
21.06.2018 03:00:00 19,4 16,6 6 3 16 9 SW 1020,6 19 0 0,0
21.06.2018 02:00:00 19,4 16,5 6 3 18 10 WSW 1021,0 16 0 -
21.06.2018 01:00:00 19,5 16,6 5 3 19 10 W 1021,1 17 0 0,0
21.06.2018 00:00:00 19,6 16,6 6 3 18 10 W 1021,0 16 0 0,0
20.06.2018 23:00:00 19,7 16,7 7 4 18 10 WNW 1020,8 15 0 0,0
20.06.2018 22:00:00 19,9 16,9 9 5 18 10 WNW 1020,1 5 0 0,0
20.06.2018 21:00:00 20,0 16,8 10 5 15 8 NW 1019,5 12 0 0,0
20.06.2018 20:00:00 20,5 16,7 8 4 12 6 NW 1019,3 18 0 -
20.06.2018 19:00:00 21,4 17,2 5 3 9 5 NNW 1018,7 16 0 0,0
20.06.2018 18:00:00 22,4 17,8 3 1 8 4 N 1018,8 14 2 0,0
20.06.2018 17:00:00 22,3 17,9 2 1 8 4 NE 1018,9 17 0 0,0
20.06.2018 16:00:00 22,4 17,9 4 2 9 5 NNW 1019,1 17 0 0,0
20.06.2018 15:00:00 22,3 18,1 4 2 7 4 NNW 1018,9 18 0 0,0
20.06.2018 14:00:00 21,9 17,9 3 1 8 5 NNE 1019,1 16 0 -
20.06.2018 13:00:00 21,2 17,6 6 3 12 7 NNW 1019,2 13 0 0,0
20.06.2018 12:00:00 20,5 17,3 9 5 14 7 NW 1019,3 15 8 0,0
20.06.2018 11:00:00 19,9 16,9 5 3 10 6 NNW 1019,0 13 0 0,0
20.06.2018 10:00:00 19,5 16,7 6 3 8 4 NNW 1018,9 7 0 0,0
20.06.2018 09:00:00 19,1 16,7 4 2 7 4 WSW 1018,7 17 0 0,0
20.06.2018 08:00:00 18,5 16,1 4 2 9 5 W 1018,7 14 0 -
20.06.2018 07:00:00 18,2 15,8 4 2 8 4 W 1018,6 17 0 0,0
20.06.2018 06:00:00 18,1 15,7 3 2 8 5 W 1018,3 18 0 0,0
20.06.2018 05:00:00 18,2 15,8 4 2 8 4 W 1018,4 19 0 0,0
20.06.2018 04:00:00 18,3 15,9 4 2 6 4 WSW 1018,4 18 0 0,0
20.06.2018 03:00:00 18,3 15,9 3 2 8 5 W 1018,8 19 0 0,0
20.06.2018 02:00:00 18,4 15,8 1 1 5 3 WSW 1019,3 11 0 -
20.06.2018 01:00:00 18,5 16,0 1 1 7 4 W 1019,6 18 0 0,0
20.06.2018 00:00:00 18,6 16,0 8 4 20 11 SE 1020,0 8 0 0,0
19.06.2018 23:00:00 18,6 15,9 13 7 23 12 ESE 1020,2 9 0 0,0
19.06.2018 22:00:00 18,6 15,6 15 8 29 15 ESE 1020,0 9 0 0,0
19.06.2018 21:00:00 18,7 15,5 21 12 31 17 ESE 1020,1 9 0 0,0
19.06.2018 20:00:00 18,7 15,5 18 10 28 15 ESE 1020,5 9 0 -
19.06.2018 19:00:00 18,7 15,3 20 11 33 18 ESE 1020,6 13 0 0,0
19.06.2018 18:00:00 18,8 15,1 21 11 32 17 ESE 1021,2 12 0 0,0
19.06.2018 17:00:00 19,0 15,7 18 10 31 17 ESE 1021,5 19 0 0,0
19.06.2018 16:00:00 19,2 15,7 19 10 33 18 E 1021,9 20 0 0,0
19.06.2018 15:00:00 19,1 15,5 22 12 41 22 E 1022,4 20 1 0,0
19.06.2018 14:00:00 19,3 15,2 25 13 39 21 E 1022,8 20 21 -
19.06.2018 13:00:00 19,0 15,3 22 12 40 22 E 1023,3 20 4 0,0
19.06.2018 12:00:00 18,2 14,7 25 13 36 19 E 1023,7 20 0 0,0
19.06.2018 11:00:00 17,8 15,1 26 14 37 20 E 1024,0 20 5 0,0
19.06.2018 10:00:00 18,1 15,3 19 10 29 15 E 1024,3 20 0 0,0
19.06.2018 09:00:00 17,3 15,1 14 8 24 13 ESE 1024,6 20 0 0,0
19.06.2018 08:00:00 16,9 15,1 18 10 27 15 ESE 1024,9 16 0 -
19.06.2018 07:00:00 16,8 15,0 19 10 27 15 E 1025,0 20 0 0,2
19.06.2018 06:00:00 16,9 15,1 19 10 25 13 E 1025,0 20 0 0,0
19.06.2018 05:00:00 17,1 15,3 6 4 15 8 ESE 1025,3 3,8 0 0,2
19.06.2018 04:00:00 17,0 15,0 10 5 18 10 E 1025,7 4,8 0 0,2
19.06.2018 03:00:00 17,2 15,0 15 8 19 11 ENE 1025,9 7 0 0,0
19.06.2018 02:00:00 17,9 15,5 10 6 15 8 E 1026,2 16 0 -
19.06.2018 01:00:00 18,0 15,3 2 1 6 4 SE 1026,8 20 0 0,0
19.06.2018 00:00:00 17,9 15,2 3 2 5 3 NW 1027,0 20 0 0,0
18.06.2018 23:00:00 18,0 15,3 3 2 11 6 SSE 1027,0 20 0 0,0
18.06.2018 22:00:00 18,0 15,3 5 3 10 5 E 1026,9 20 0 0,0
18.06.2018 21:00:00 18,0 15,1 6 3 19 10 SE 1026,8 20 0 0,0
18.06.2018 20:00:00 18,1 15,3 10 5 17 9 ESE 1027,0 19 0 -
18.06.2018 19:00:00 18,2 15,6 11 6 17 9 ESE 1027,1 19 0 0,0
18.06.2018 18:00:00 18,3 15,5 10 5 21 11 ENE 1027,5 5 0 0,0
18.06.2018 17:00:00 18,7 15,5 11 6 20 11 ENE 1027,6 20 0 0,0
18.06.2018 16:00:00 19,6 15,6 4 2 13 7 N 1027,6 20 0 0,0

tt = temperature
td = dewpoint
ff = wind speed
fx = gusts
dd = wind direction
ppp = reduced air pressure
vv = visibility
sd = sunshine duration
rr = precipitation

Next stations